Back to catalog

THORAD DELTA 1 DEB

AliveSSO
NORAD 42592·DEBRIS·🇺🇸 United States

Launched Nov 15, 1974 from Vandenberg Space Force Base

Loading…

Next Passes (next 24 hours)

TLE

StaleSource: Space-Track

Epoch: Sep 1, 2026, 19:09 UTC

1 42592U 74089CW  26244.79819242  .00000006  00000-0  33671-3 0  9999
2 42592 101.8694 195.3361 0033867  93.8618 266.6325 12.50321595542311

Track THORAD DELTA 1 DEB in real time with AllMySat

Download on the App Store